カタログに戻る

SDS-1

運用中軍事SSO
NORAD 33497·PAYLOAD·🇯🇵 Japan

打ち上げ Jan 23, 2009 から Tanegashima Space Center

Loading…

次のパス (今後24時間)

TLE

最新Source: Space-Track

元期: Sep 14, 2026, 04:22 UTC

1 33497U 09002F   26257.18243882  .00000424  00000-0  71402-4 0  9993
2 33497  98.1792 157.3170 0002404  35.3337 324.8030 14.74608774946672

AllMySatでSDS-1をリアルタイム追跡

Download on the App Store